{"data":{"norad_id":52786,"epoch":"2026-05-24T22:19:57.208800Z","epoch_age_seconds":91435,"freshness":"FRESH","line1":"1 52786U 22058B   26144.93052325  .00001616  00000+0  23275-3 0  9996","line2":"2 52786  50.0016 310.1435 0023223 162.7287 197.4445 14.81289397216481","mean_motion":14.81289397,"eccentricity":0.0023223,"inclination_deg":50.0016,"raan_deg":310.1435,"arg_perigee_deg":162.7287,"mean_anomaly_deg":197.4445,"bstar":0.00023275,"rev_number":21648,"period_min":97.212604297066,"perigee_km":608.99310553455,"apogee_km":641.52106971393,"semimajor_km":7003.3940876242,"source":"CELESTRAK","updated_at":"2026-05-25T13:37:57.888501Z"}}